contact:dominique.lefevre@mio.osupytheas.fr, maurice.libes@osupytheas.fr, didier.mallarino@osupytheas.fr
Project:EMSO http://www.emso-fr.org/EMSO-France
Depth: 2436.0 m
Title:EMSO Ligure Ouest : Data MII capteur MICROCAT
DateTime_Computer,Latitude,Longitude,Temperature,Conductivity,Pressure,DateTime_Instrument
DateTime_Computer,Latitude,Longitude,degC,S m-1,dbar,DateTime_Instrument
2020-06-30T00:02:57Z,42.805,6.029,13.2976,4.59987,2470.077,2020-6-30T02:03:42Z
2020-06-30T00:06:00Z,42.805,6.029,13.2974,4.59980,2470.11,2020-6-30T02:06:45Z
2020-06-30T00:09:03Z,42.805,6.029,13.2982,4.59986,2470.063,2020-6-30T02:09:49Z
2020-06-30T00:12:06Z,42.805,6.029,13.2979,4.59982,2470.124,2020-6-30T02:12:52Z
2020-06-30T00:15:10Z,42.805,6.029,13.2974,4.59981,2470.077,2020-6-30T02:15:55Z
2020-06-30T00:18:13Z,42.805,6.029,13.2974,4.59985,2470.053,2020-6-30T02:18:58Z
2020-06-30T00:21:16Z,42.805,6.029,13.2979,4.60003,2470.087,2020-6-30T02:22:02Z
2020-06-30T00:24:19Z,42.805,6.029,13.2976,4.60000,2470.077,2020-6-30T02:25:05Z
2020-06-30T00:27:23Z,42.805,6.029,13.2979,4.59989,2470.063,2020-6-30T02:28:08Z
2020-06-30T00:30:26Z,42.805,6.029,13.2973,4.59985,2470.087,2020-6-30T02:31:11Z
2020-06-30T00:33:29Z,42.805,6.029,13.2975,4.59983,2470.087,2020-6-30T02:34:15Z
2020-06-30T00:36:32Z,42.805,6.029,13.2982,4.59983,2470.077,2020-6-30T02:37:18Z
2020-06-30T00:39:36Z,42.805,6.029,13.2978,4.59996,2470.087,2020-6-30T02:40:21Z
2020-06-30T00:42:39Z,42.805,6.029,13.2976,4.59986,2470.077,2020-6-30T02:43:24Z
2020-06-30T00:45:42Z,42.805,6.029,13.2976,4.59996,2470.063,2020-6-30T02:46:28Z
2020-06-30T00:48:45Z,42.805,6.029,13.2979,4.59987,2470.087,2020-6-30T02:49:31Z
2020-06-30T00:51:49Z,42.805,6.029,13.2979,4.59988,2470.11,2020-6-30T02:52:34Z
2020-06-30T00:54:52Z,42.805,6.029,13.2976,4.59986,2470.124,2020-6-30T02:55:37Z
2020-06-30T00:57:55Z,42.805,6.029,13.2986,4.60010,2470.087,2020-6-30T02:58:41Z
2020-06-30T01:00:58Z,42.805,6.029,13.2980,4.59998,2470.087,2020-6-30T03:01:44Z
2020-06-30T01:04:02Z,42.805,6.029,13.2976,4.59985,2470.1,2020-6-30T03:04:47Z
2020-06-30T01:07:05Z,42.805,6.029,13.2979,4.59996,2470.147,2020-6-30T03:07:50Z
2020-06-30T01:10:08Z,42.805,6.029,13.2974,4.59983,2470.11,2020-6-30T03:10:54Z
2020-06-30T01:13:11Z,42.805,6.029,13.2976,4.59982,2470.11,2020-6-30T03:13:57Z
2020-06-30T01:16:15Z,42.805,6.029,13.2976,4.59987,2470.1,2020-6-30T03:17:00Z
2020-06-30T01:19:18Z,42.805,6.029,13.2976,4.59983,2470.124,2020-6-30T03:20:03Z
2020-06-30T01:22:21Z,42.805,6.029,13.2976,4.59991,2470.11,2020-6-30T03:23:07Z
2020-06-30T01:25:24Z,42.805,6.029,13.2977,4.59986,2470.1,2020-6-30T03:26:10Z
2020-06-30T01:28:28Z,42.805,6.029,13.2978,4.59987,2470.11,2020-6-30T03:29:13Z
2020-06-30T01:31:31Z,42.805,6.029,13.2979,4.59987,2470.063,2020-6-30T03:32:16Z
2020-06-30T01:34:34Z,42.805,6.029,13.2979,4.59983,2470.11,2020-6-30T03:35:20Z
2020-06-30T01:37:37Z,42.805,6.029,13.2980,4.59992,2470.124,2020-6-30T03:38:23Z
2020-06-30T01:40:41Z,42.805,6.029,13.2986,4.59983,2470.11,2020-6-30T03:41:26Z
2020-06-30T01:43:44Z,42.805,6.029,13.2979,4.60002,2470.11,2020-6-30T03:44:29Z
2020-06-30T01:46:47Z,42.805,6.029,13.2973,4.59982,2470.124,2020-6-30T03:47:33Z
2020-06-30T01:49:50Z,42.805,6.029,13.2979,4.59983,2470.147,2020-6-30T03:50:36Z
2020-06-30T01:52:54Z,42.805,6.029,13.2976,4.59986,2470.11,2020-6-30T03:53:39Z
2020-06-30T01:55:57Z,42.805,6.029,13.2974,4.59984,2470.147,2020-6-30T03:56:42Z
2020-06-30T01:59:00Z,42.805,6.029,13.2974,4.59986,2470.11,2020-6-30T03:59:46Z
2020-06-30T02:02:03Z,42.805,6.029,13.2974,4.59990,2470.11,2020-6-30T04:02:49Z
2020-06-30T02:05:07Z,42.805,6.029,13.2980,4.59992,2470.11,2020-6-30T04:05:52Z
2020-06-30T02:08:10Z,42.805,6.029,13.2977,4.59986,2470.11,2020-6-30T04:08:55Z
2020-06-30T02:11:13Z,42.805,6.029,13.2979,4.59985,2470.133,2020-6-30T04:11:59Z
2020-06-30T02:14:16Z,42.805,6.029,13.2974,4.59981,2470.11,2020-6-30T04:15:02Z
2020-06-30T02:17:20Z,42.805,6.029,13.2974,4.59996,2470.133,2020-6-30T04:18:05Z
2020-06-30T02:20:23Z,42.805,6.029,13.2976,4.59995,2470.156,2020-6-30T04:21:08Z
2020-06-30T02:23:26Z,42.805,6.029,13.2976,4.59983,2470.124,2020-6-30T04:24:12Z
2020-06-30T02:26:29Z,42.805,6.029,13.2973,4.59983,2470.124,2020-6-30T04:27:15Z
2020-06-30T02:29:33Z,42.805,6.029,13.2977,4.59985,2470.11,2020-6-30T04:30:18Z
2020-06-30T02:32:36Z,42.805,6.029,13.2979,4.59990,2470.124,2020-6-30T04:33:21Z
2020-06-30T02:35:39Z,42.805,6.029,13.2976,4.60011,2470.11,2020-6-30T04:36:25Z
2020-06-30T02:38:42Z,42.805,6.029,13.2982,4.59992,2470.147,2020-6-30T04:39:28Z
2020-06-30T02:41:45Z,42.805,6.029,13.2984,4.59996,2470.147,2020-6-30T04:42:31Z
2020-06-30T02:44:49Z,42.805,6.029,13.2981,4.60003,2470.133,2020-6-30T04:45:34Z
2020-06-30T02:47:52Z,42.805,6.029,13.2971,4.59987,2470.133,2020-6-30T04:48:37Z
2020-06-30T02:50:55Z,42.805,6.029,13.2979,4.59986,2470.11,2020-6-30T04:51:41Z
2020-06-30T02:53:58Z,42.805,6.029,13.2975,4.59998,2470.133,2020-6-30T04:54:44Z
2020-06-30T02:57:02Z,42.805,6.029,13.2972,4.59986,2470.133,2020-6-30T04:57:47Z
2020-06-30T03:00:05Z,42.805,6.029,13.2976,4.59994,2470.147,2020-6-30T05:00:51Z
2020-06-30T03:03:08Z,42.805,6.029,13.2976,4.59991,2470.171,2020-6-30T05:03:54Z
2020-06-30T03:06:11Z,42.805,6.029,13.2977,4.59984,2470.133,2020-6-30T05:06:57Z
2020-06-30T03:09:15Z,42.805,6.029,13.2974,4.59988,2470.11,2020-6-30T05:10:00Z
2020-06-30T03:12:18Z,42.805,6.029,13.2973,4.59984,2470.171,2020-6-30T05:13:03Z
2020-06-30T03:15:21Z,42.805,6.029,13.2976,4.59988,2470.133,2020-6-30T05:16:07Z
2020-06-30T03:18:24Z,42.805,6.029,13.2977,4.59991,2470.133,2020-6-30T05:19:10Z
2020-06-30T03:21:28Z,42.805,6.029,13.2974,4.59987,2470.147,2020-6-30T05:22:13Z
2020-06-30T03:24:31Z,42.805,6.029,13.2979,4.59991,2470.11,2020-6-30T05:25:17Z
2020-06-30T03:27:34Z,42.805,6.029,13.2976,4.59998,2470.133,2020-6-30T05:28:20Z
2020-06-30T03:30:38Z,42.805,6.029,13.2976,4.59987,2470.147,2020-6-30T05:31:23Z
2020-06-30T03:33:41Z,42.805,6.029,13.2982,4.60000,2470.11,2020-6-30T05:34:26Z
2020-06-30T03:36:44Z,42.805,6.029,13.2976,4.59985,2470.11,2020-6-30T05:37:30Z
2020-06-30T03:39:47Z,42.805,6.029,13.2977,4.59996,2470.124,2020-6-30T05:40:33Z
2020-06-30T03:42:50Z,42.805,6.029,13.2971,4.59987,2470.156,2020-6-30T05:43:36Z
2020-06-30T03:45:54Z,42.805,6.029,13.2975,4.59996,2470.11,2020-6-30T05:46:39Z
2020-06-30T03:48:57Z,42.805,6.029,13.2976,4.59994,2470.133,2020-6-30T05:49:43Z
2020-06-30T03:52:00Z,42.805,6.029,13.2975,4.59991,2470.147,2020-6-30T05:52:46Z
2020-06-30T03:55:03Z,42.805,6.029,13.2982,4.59989,2470.124,2020-6-30T05:55:49Z
2020-06-30T03:58:07Z,42.805,6.029,13.2981,4.59996,2470.11,2020-6-30T05:58:52Z
2020-06-30T04:01:10Z,42.805,6.029,13.2979,4.59992,2470.171,2020-6-30T06:01:55Z
2020-06-30T04:04:13Z,42.805,6.029,13.2979,4.59996,2470.11,2020-6-30T06:04:59Z
2020-06-30T04:07:16Z,42.805,6.029,13.2975,4.59991,2470.1,2020-6-30T06:08:02Z
2020-06-30T04:10:19Z,42.805,6.029,13.2975,4.59984,2470.11,2020-6-30T06:11:05Z
2020-06-30T04:13:23Z,42.805,6.029,13.2975,4.59994,2470.124,2020-6-30T06:14:08Z
2020-06-30T04:16:26Z,42.805,6.029,13.2977,4.59986,2470.087,2020-6-30T06:17:12Z
2020-06-30T04:19:29Z,42.805,6.029,13.2977,4.59990,2470.11,2020-6-30T06:20:15Z
2020-06-30T04:22:32Z,42.805,6.029,13.2980,4.59989,2470.11,2020-6-30T06:23:18Z
2020-06-30T04:25:36Z,42.805,6.029,13.2978,4.59987,2470.087,2020-6-30T06:26:21Z
2020-06-30T04:28:39Z,42.805,6.029,13.2979,4.59987,2470.11,2020-6-30T06:29:24Z
2020-06-30T04:31:42Z,42.805,6.029,13.2973,4.59983,2470.087,2020-6-30T06:32:28Z
2020-06-30T04:34:45Z,42.805,6.029,13.2981,4.59994,2470.11,2020-6-30T06:35:31Z
2020-06-30T04:37:49Z,42.805,6.029,13.2981,4.59991,2470.087,2020-6-30T06:38:34Z
2020-06-30T04:40:52Z,42.805,6.029,13.2987,4.59992,2470.087,2020-6-30T06:41:37Z
2020-06-30T04:43:55Z,42.805,6.029,13.2987,4.59993,2470.1,2020-6-30T06:44:41Z
2020-06-30T04:46:58Z,42.805,6.029,13.2981,4.59989,2470.11,2020-6-30T06:47:44Z
2020-06-30T04:50:02Z,42.805,6.029,13.2972,4.59994,2470.087,2020-6-30T06:50:47Z
2020-06-30T04:53:05Z,42.805,6.029,13.2979,4.59992,2470.087,2020-6-30T06:53:51Z
2020-06-30T04:56:08Z,42.805,6.029,13.2983,4.59991,2470.087,2020-6-30T06:56:54Z
2020-06-30T04:59:11Z,42.805,6.029,13.2972,4.59983,2470.11,2020-6-30T06:59:57Z
2020-06-30T05:02:15Z,42.805,6.029,13.2979,4.59988,2470.087,2020-6-30T07:03:00Z
2020-06-30T05:05:18Z,42.805,6.029,13.2983,4.59993,2470.1,2020-6-30T07:06:03Z
2020-06-30T05:08:21Z,42.805,6.029,13.2979,4.59995,2470.1,2020-6-30T07:09:07Z
2020-06-30T05:11:24Z,42.805,6.029,13.2979,4.59996,2470.087,2020-6-30T07:12:10Z
2020-06-30T05:14:27Z,42.805,6.029,13.2976,4.59993,2470.063,2020-6-30T07:15:13Z
2020-06-30T05:17:31Z,42.805,6.029,13.2982,4.60009,2470.063,2020-6-30T07:18:16Z
2020-06-30T05:20:34Z,42.805,6.029,13.2974,4.60006,2470.063,2020-6-30T07:21:19Z
2020-06-30T05:23:37Z,42.805,6.029,13.2979,4.59987,2470.063,2020-6-30T07:24:23Z
2020-06-30T05:26:40Z,42.805,6.029,13.2980,4.60004,2470.1,2020-6-30T07:27:26Z
2020-06-30T05:29:44Z,42.805,6.029,13.2986,4.60008,2470.077,2020-6-30T07:30:29Z
2020-06-30T05:32:47Z,42.805,6.029,13.2977,4.59985,2470.077,2020-6-30T07:33:32Z
2020-06-30T05:35:50Z,42.805,6.029,13.2977,4.59989,2470.04,2020-6-30T07:36:36Z
2020-06-30T05:38:53Z,42.805,6.029,13.2982,4.59991,2470.063,2020-6-30T07:39:39Z
2020-06-30T05:41:57Z,42.805,6.029,13.2979,4.60005,2470.04,2020-6-30T07:42:42Z
2020-06-30T05:45:00Z,42.805,6.029,13.2975,4.59985,2470.053,2020-6-30T07:45:45Z
2020-06-30T05:48:03Z,42.805,6.029,13.2976,4.59989,2470.04,2020-6-30T07:48:49Z
2020-06-30T05:51:06Z,42.805,6.029,13.2982,4.59999,2470.087,2020-6-30T07:51:52Z
2020-06-30T05:54:10Z,42.805,6.029,13.2980,4.59986,2470.053,2020-6-30T07:54:55Z
2020-06-30T05:57:13Z,42.805,6.029,13.2976,4.59983,2470.017,2020-6-30T07:57:58Z
2020-06-30T06:00:16Z,42.805,6.029,13.2976,4.60000,2470.087,2020-6-30T08:01:01Z
2020-06-30T06:03:19Z,42.805,6.029,13.2981,4.60003,2470.053,2020-6-30T08:04:05Z
2020-06-30T06:06:22Z,42.805,6.029,13.2976,4.59991,2470.063,2020-6-30T08:07:08Z
2020-06-30T06:09:26Z,42.805,6.029,13.2979,4.59987,2470.063,2020-6-30T08:10:11Z
2020-06-30T06:12:29Z,42.805,6.029,13.2977,4.59986,2470.053,2020-6-30T08:13:14Z
2020-06-30T06:15:32Z,42.805,6.029,13.2968,4.59981,2470.053,2020-6-30T08:16:18Z
2020-06-30T06:18:35Z,42.805,6.029,13.2976,4.59986,2470.04,2020-6-30T08:19:21Z
2020-06-30T06:21:39Z,42.805,6.029,13.2981,4.59989,2470.04,2020-6-30T08:22:24Z
2020-06-30T06:24:42Z,42.805,6.029,13.2982,4.59991,2470.053,2020-6-30T08:25:27Z
2020-06-30T06:27:45Z,42.805,6.029,13.2973,4.59989,2470.04,2020-6-30T08:28:31Z
2020-06-30T06:30:48Z,42.805,6.029,13.2977,4.59982,2470.04,2020-6-30T08:31:34Z
2020-06-30T06:33:52Z,42.805,6.029,13.2976,4.59988,2470.04,2020-6-30T08:34:37Z
2020-06-30T06:36:55Z,42.805,6.029,13.2976,4.59996,2470.017,2020-6-30T08:37:40Z
2020-06-30T06:39:58Z,42.805,6.029,13.2978,4.60000,2470.04,2020-6-30T08:40:44Z
2020-06-30T06:43:01Z,42.805,6.029,13.2974,4.59991,2470.053,2020-6-30T08:43:47Z
2020-06-30T06:46:05Z,42.805,6.029,13.2973,4.59995,2470.017,2020-6-30T08:46:50Z
2020-06-30T06:49:08Z,42.805,6.029,13.2971,4.59982,2470.007,2020-6-30T08:49:53Z
2020-06-30T06:52:11Z,42.805,6.029,13.2974,4.59983,2470.04,2020-6-30T08:52:56Z
2020-06-30T06:55:14Z,42.805,6.029,13.2974,4.59986,2469.993,2020-6-30T08:56:00Z
2020-06-30T06:58:17Z,42.805,6.029,13.2976,4.59986,2470.007,2020-6-30T08:59:03Z
2020-06-30T07:01:21Z,42.805,6.029,13.2972,4.59984,2470.03,2020-6-30T09:02:06Z
2020-06-30T07:04:24Z,42.805,6.029,13.2977,4.59994,2470.03,2020-6-30T09:05:09Z
2020-06-30T07:07:27Z,42.805,6.029,13.2974,4.59993,2470.017,2020-6-30T09:08:13Z
2020-06-30T07:10:30Z,42.805,6.029,13.2978,4.59986,2470.053,2020-6-30T09:11:16Z
2020-06-30T07:13:34Z,42.805,6.029,13.2979,4.59986,2470.007,2020-6-30T09:14:19Z
2020-06-30T07:16:37Z,42.805,6.029,13.2971,4.59981,2470.017,2020-6-30T09:17:22Z
2020-06-30T07:19:40Z,42.805,6.029,13.2982,4.59988,2470.03,2020-6-30T09:20:26Z
2020-06-30T07:22:43Z,42.805,6.029,13.2978,4.59991,2470.017,2020-6-30T09:23:29Z
2020-06-30T07:25:47Z,42.805,6.029,13.2976,4.59981,2470.017,2020-6-30T09:26:32Z
2020-06-30T07:28:50Z,42.805,6.029,13.2974,4.59981,2470.03,2020-6-30T09:29:35Z
2020-06-30T07:31:53Z,42.805,6.029,13.2982,4.59997,2470.04,2020-6-30T09:32:39Z
2020-06-30T07:34:56Z,42.805,6.029,13.2976,4.59987,2470.03,2020-6-30T09:35:42Z
2020-06-30T07:37:59Z,42.805,6.029,13.2972,4.59983,2469.993,2020-6-30T09:38:45Z
2020-06-30T07:41:03Z,42.805,6.029,13.2967,4.59985,2470.03,2020-6-30T09:41:48Z
2020-06-30T07:44:06Z,42.805,6.029,13.2977,4.59979,2470.03,2020-6-30T09:44:51Z
2020-06-30T07:47:09Z,42.805,6.029,13.2977,4.59981,2469.97,2020-6-30T09:47:55Z
2020-06-30T07:50:12Z,42.805,6.029,13.2976,4.59978,2470.017,2020-6-30T09:50:58Z
2020-06-30T07:53:16Z,42.805,6.029,13.2979,4.59996,2469.984,2020-6-30T09:54:01Z
2020-06-30T07:56:19Z,42.805,6.029,13.2979,4.59986,2470.017,2020-6-30T09:57:05Z
2020-06-30T07:59:22Z,42.805,6.029,13.2971,4.59983,2469.993,2020-6-30T10:00:08Z
2020-06-30T08:02:25Z,42.805,6.029,13.2983,4.59988,2469.993,2020-6-30T10:03:11Z
2020-06-30T08:05:29Z,42.805,6.029,13.2976,4.59983,2470.017,2020-6-30T10:06:14Z
2020-06-30T08:08:32Z,42.805,6.029,13.2975,4.59984,2470.017,2020-6-30T10:09:18Z
2020-06-30T08:11:35Z,42.805,6.029,13.2977,4.59987,2469.993,2020-6-30T10:12:21Z
2020-06-30T08:14:39Z,42.805,6.029,13.2976,4.59994,2470.017,2020-6-30T10:15:24Z
2020-06-30T08:17:42Z,42.805,6.029,13.2977,4.59986,2469.993,2020-6-30T10:18:27Z
2020-06-30T08:20:45Z,42.805,6.029,13.2974,4.59981,2469.984,2020-6-30T10:21:31Z
2020-06-30T08:23:48Z,42.805,6.029,13.2975,4.59988,2469.984,2020-6-30T10:24:34Z
2020-06-30T08:26:52Z,42.805,6.029,13.2974,4.59983,2469.993,2020-6-30T10:27:37Z
2020-06-30T08:29:55Z,42.805,6.029,13.2974,4.59981,2470.007,2020-6-30T10:30:40Z
2020-06-30T08:32:58Z,42.805,6.029,13.2975,4.59984,2469.993,2020-6-30T10:33:44Z
2020-06-30T08:36:01Z,42.805,6.029,13.2976,4.59984,2469.97,2020-6-30T10:36:47Z
2020-06-30T08:39:05Z,42.805,6.029,13.2971,4.59979,2469.993,2020-6-30T10:39:50Z
2020-06-30T08:42:08Z,42.805,6.029,13.2978,4.59985,2470.007,2020-6-30T10:42:54Z
2020-06-30T08:45:11Z,42.805,6.029,13.2973,4.59986,2469.947,2020-6-30T10:45:57Z
2020-06-30T08:48:15Z,42.805,6.029,13.2978,4.59988,2469.993,2020-6-30T10:49:00Z
2020-06-30T08:51:18Z,42.805,6.029,13.2975,4.59983,2469.993,2020-6-30T10:52:03Z
2020-06-30T08:54:21Z,42.805,6.029,13.2975,4.59980,2470.03,2020-6-30T10:55:07Z
2020-06-30T08:57:24Z,42.805,6.029,13.2975,4.59981,2469.984,2020-6-30T10:58:10Z
2020-06-30T09:00:28Z,42.805,6.029,13.2974,4.59985,2469.947,2020-6-30T11:01:13Z
2020-06-30T09:03:31Z,42.805,6.029,13.2969,4.59981,2469.947,2020-6-30T11:04:16Z
2020-06-30T09:06:34Z,42.805,6.029,13.2975,4.59982,2469.97,2020-6-30T11:07:20Z
2020-06-30T09:09:37Z,42.805,6.029,13.2976,4.59991,2469.96,2020-6-30T11:10:23Z
2020-06-30T09:12:41Z,42.805,6.029,13.2974,4.59984,2469.96,2020-6-30T11:13:26Z
2020-06-30T09:15:44Z,42.805,6.029,13.2972,4.59983,2469.993,2020-6-30T11:16:29Z
2020-06-30T09:18:47Z,42.805,6.029,13.2979,4.59985,2469.947,2020-6-30T11:19:33Z
2020-06-30T09:21:50Z,42.805,6.029,13.2974,4.59996,2469.97,2020-6-30T11:22:36Z
2020-06-30T09:24:54Z,42.805,6.029,13.2978,4.59993,2469.96,2020-6-30T11:25:39Z
2020-06-30T09:27:57Z,42.805,6.029,13.2984,4.59994,2469.984,2020-6-30T11:28:43Z
2020-06-30T09:31:00Z,42.805,6.029,13.2975,4.59991,2469.984,2020-6-30T11:31:46Z
2020-06-30T09:34:04Z,42.805,6.029,13.2978,4.59985,2469.984,2020-6-30T11:34:49Z
2020-06-30T09:37:07Z,42.805,6.029,13.2976,4.59987,2469.984,2020-6-30T11:37:52Z
2020-06-30T09:40:10Z,42.805,6.029,13.2972,4.59983,2469.993,2020-6-30T11:40:56Z
2020-06-30T09:43:13Z,42.805,6.029,13.2976,4.59980,2469.947,2020-6-30T11:43:59Z
2020-06-30T09:46:17Z,42.805,6.029,13.2978,4.59991,2469.97,2020-6-30T11:47:02Z
2020-06-30T09:49:20Z,42.805,6.029,13.2975,4.59987,2469.97,2020-6-30T11:50:05Z
2020-06-30T09:52:23Z,42.805,6.029,13.2975,4.59983,2469.947,2020-6-30T11:53:09Z
2020-06-30T09:55:27Z,42.805,6.029,13.2971,4.59991,2470.007,2020-6-30T11:56:12Z
2020-06-30T09:58:30Z,42.805,6.029,13.2977,4.59984,2469.96,2020-6-30T11:59:16Z
2020-06-30T10:01:33Z,42.805,6.029,13.2978,4.59992,2469.947,2020-6-30T12:02:19Z
2020-06-30T10:04:36Z,42.805,6.029,13.2976,4.59983,2469.923,2020-6-30T12:05:22Z
2020-06-30T10:07:40Z,42.805,6.029,13.2976,4.59985,2469.993,2020-6-30T12:08:25Z
2020-06-30T10:10:43Z,42.805,6.029,13.2977,4.59987,2469.947,2020-6-30T12:11:29Z
2020-06-30T10:13:46Z,42.805,6.029,13.2976,4.59990,2469.97,2020-6-30T12:14:32Z
2020-06-30T10:16:50Z,42.805,6.029,13.2974,4.59982,2469.97,2020-6-30T12:17:35Z
2020-06-30T10:19:53Z,42.805,6.029,13.2980,4.59991,2469.993,2020-6-30T12:20:38Z
2020-06-30T10:22:56Z,42.805,6.029,13.2976,4.59987,2469.984,2020-6-30T12:23:42Z
2020-06-30T10:25:59Z,42.805,6.029,13.2977,4.59998,2469.96,2020-6-30T12:26:45Z
2020-06-30T10:29:03Z,42.805,6.029,13.2976,4.60001,2469.96,2020-6-30T12:29:48Z
2020-06-30T10:32:06Z,42.805,6.029,13.2983,4.60006,2470.007,2020-6-30T12:32:51Z
2020-06-30T10:35:09Z,42.805,6.029,13.2979,4.59982,2469.993,2020-6-30T12:35:55Z
2020-06-30T10:38:13Z,42.805,6.029,13.2976,4.59995,2469.97,2020-6-30T12:38:58Z
2020-06-30T10:41:16Z,42.805,6.029,13.2976,4.59983,2469.947,2020-6-30T12:42:01Z
2020-06-30T10:44:19Z,42.805,6.029,13.2981,4.59997,2469.984,2020-6-30T12:45:05Z
2020-06-30T10:47:22Z,42.805,6.029,13.2975,4.59983,2469.947,2020-6-30T12:48:08Z
2020-06-30T10:50:25Z,42.805,6.029,13.2979,4.59994,2469.97,2020-6-30T12:51:11Z
2020-06-30T10:53:29Z,42.805,6.029,13.2976,4.59991,2469.984,2020-6-30T12:54:14Z
2020-06-30T10:56:32Z,42.805,6.029,13.2976,4.59985,2469.97,2020-6-30T12:57:17Z
2020-06-30T10:59:35Z,42.805,6.029,13.2979,4.59991,2469.993,2020-6-30T13:00:21Z
2020-06-30T11:02:38Z,42.805,6.029,13.2976,4.59991,2469.96,2020-6-30T13:03:24Z
2020-06-30T11:05:41Z,42.805,6.029,13.2980,4.59991,2469.96,2020-6-30T13:06:27Z
2020-06-30T11:08:45Z,42.805,6.029,13.2976,4.59988,2469.97,2020-6-30T13:09:30Z
2020-06-30T11:11:48Z,42.805,6.029,13.2974,4.59986,2469.984,2020-6-30T13:12:33Z
2020-06-30T11:14:51Z,42.805,6.029,13.2976,4.59988,2469.993,2020-6-30T13:15:37Z
2020-06-30T11:17:54Z,42.805,6.029,13.2974,4.59983,2469.947,2020-6-30T13:18:40Z
2020-06-30T11:20:58Z,42.805,6.029,13.2987,4.60006,2469.947,2020-6-30T13:21:43Z
2020-06-30T11:24:01Z,42.805,6.029,13.2974,4.59988,2470.007,2020-6-30T13:24:46Z
2020-06-30T11:27:04Z,42.805,6.029,13.2975,4.59985,2469.97,2020-6-30T13:27:50Z
2020-06-30T11:30:07Z,42.805,6.029,13.2974,4.59997,2469.97,2020-6-30T13:30:53Z
2020-06-30T11:33:11Z,42.805,6.029,13.2985,4.59986,2469.984,2020-6-30T13:33:56Z
2020-06-30T11:36:14Z,42.805,6.029,13.2974,4.59991,2470.017,2020-6-30T13:36:59Z
2020-06-30T11:39:17Z,42.805,6.029,13.2981,4.60008,2469.97,2020-6-30T13:40:03Z
2020-06-30T11:42:20Z,42.805,6.029,13.2979,4.59990,2469.97,2020-6-30T13:43:06Z
2020-06-30T11:45:24Z,42.805,6.029,13.2974,4.59996,2470.007,2020-6-30T13:46:09Z
2020-06-30T11:48:27Z,42.805,6.029,13.2973,4.59993,2469.993,2020-6-30T13:49:12Z
2020-06-30T11:51:30Z,42.805,6.029,13.2979,4.60008,2469.97,2020-6-30T13:52:16Z
2020-06-30T11:54:33Z,42.805,6.029,13.2979,4.59996,2470.007,2020-6-30T13:55:19Z
2020-06-30T11:57:37Z,42.805,6.029,13.2979,4.60005,2470.007,2020-6-30T13:58:22Z
2020-06-30T12:00:40Z,42.805,6.029,13.2976,4.59994,2470.03,2020-6-30T14:01:26Z
2020-06-30T12:03:43Z,42.805,6.029,13.2982,4.59993,2469.993,2020-6-30T14:04:29Z
2020-06-30T12:06:46Z,42.805,6.029,13.2978,4.59995,2470.017,2020-6-30T14:07:32Z
2020-06-30T12:09:50Z,42.805,6.029,13.2978,4.60011,2469.993,2020-6-30T14:10:35Z
2020-06-30T12:12:53Z,42.805,6.029,13.2990,4.60005,2469.993,2020-6-30T14:13:39Z
2020-06-30T12:15:56Z,42.805,6.029,13.2985,4.60009,2470.03,2020-6-30T14:16:42Z
2020-06-30T12:19:00Z,42.805,6.029,13.2972,4.59994,2469.993,2020-6-30T14:19:45Z
2020-06-30T12:22:03Z,42.805,6.029,13.2979,4.59996,2470.03,2020-6-30T14:22:48Z
2020-06-30T12:25:06Z,42.805,6.029,13.2976,4.60009,2470.017,2020-6-30T14:25:52Z
2020-06-30T12:28:09Z,42.805,6.029,13.2980,4.59990,2470.017,2020-6-30T14:28:55Z
2020-06-30T12:31:13Z,42.805,6.029,13.2988,4.60016,2469.993,2020-6-30T14:31:58Z
2020-06-30T12:34:16Z,42.805,6.029,13.2986,4.60014,2470.017,2020-6-30T14:35:01Z
2020-06-30T12:37:19Z,42.805,6.029,13.2978,4.60007,2469.993,2020-6-30T14:38:05Z
2020-06-30T12:40:22Z,42.805,6.029,13.2988,4.60011,2470.017,2020-6-30T14:41:08Z
2020-06-30T12:43:26Z,42.805,6.029,13.2982,4.59997,2470.017,2020-6-30T14:44:11Z
2020-06-30T12:46:29Z,42.805,6.029,13.2976,4.59993,2469.993,2020-6-30T14:47:14Z
2020-06-30T12:49:32Z,42.805,6.029,13.2981,4.59991,2469.993,2020-6-30T14:50:18Z
2020-06-30T12:52:35Z,42.805,6.029,13.2982,4.59992,2470.053,2020-6-30T14:53:21Z
2020-06-30T12:55:38Z,42.805,6.029,13.2980,4.60019,2470.04,2020-6-30T14:56:24Z
2020-06-30T12:58:42Z,42.805,6.029,13.2975,4.60017,2470.017,2020-6-30T14:59:27Z
2020-06-30T13:01:45Z,42.805,6.029,13.2976,4.59998,2470.04,2020-6-30T15:02:30Z
2020-06-30T13:04:48Z,42.805,6.029,13.2976,4.59993,2470.017,2020-6-30T15:05:34Z
2020-06-30T13:07:51Z,42.805,6.029,13.2983,4.60001,2470.04,2020-6-30T15:08:37Z
2020-06-30T13:10:55Z,42.805,6.029,13.2986,4.60001,2470.053,2020-6-30T15:11:40Z
2020-06-30T13:13:58Z,42.805,6.029,13.2976,4.60011,2470.063,2020-6-30T15:14:43Z
2020-06-30T13:17:01Z,42.805,6.029,13.2982,4.60000,2470.077,2020-6-30T15:17:47Z
2020-06-30T13:20:04Z,42.805,6.029,13.2990,4.60021,2470.04,2020-6-30T15:20:50Z
2020-06-30T13:23:07Z,42.805,6.029,13.2984,4.60021,2470.053,2020-6-30T15:23:53Z
2020-06-30T13:26:11Z,42.805,6.029,13.2996,4.60008,2470.063,2020-6-30T15:26:56Z
2020-06-30T13:29:14Z,42.805,6.029,13.2978,4.60014,2470.053,2020-6-30T15:30:00Z
2020-06-30T13:32:17Z,42.805,6.029,13.2975,4.60028,2470.063,2020-6-30T15:33:03Z
2020-06-30T13:35:21Z,42.805,6.029,13.2979,4.59994,2470.077,2020-6-30T15:36:06Z
2020-06-30T13:38:24Z,42.805,6.029,13.2983,4.59996,2470.04,2020-6-30T15:39:09Z
2020-06-30T13:41:27Z,42.805,6.029,13.2980,4.60001,2470.053,2020-6-30T15:42:13Z
2020-06-30T13:44:30Z,42.805,6.029,13.2983,4.60001,2470.04,2020-6-30T15:45:16Z
2020-06-30T13:47:34Z,42.805,6.029,13.2991,4.60013,2470.04,2020-6-30T15:48:19Z
2020-06-30T13:50:37Z,42.805,6.029,13.2979,4.60011,2470.04,2020-6-30T15:51:23Z
2020-06-30T13:53:40Z,42.805,6.029,13.2986,4.60016,2470.03,2020-6-30T15:54:26Z
2020-06-30T13:56:44Z,42.805,6.029,13.2987,4.60023,2470.063,2020-6-30T15:57:29Z
2020-06-30T13:59:47Z,42.805,6.029,13.2980,4.60005,2470.077,2020-6-30T16:00:32Z
2020-06-30T14:02:50Z,42.805,6.029,13.2993,4.60019,2470.087,2020-6-30T16:03:36Z
2020-06-30T14:05:53Z,42.805,6.029,13.2979,4.60003,2470.077,2020-6-30T16:06:39Z
2020-06-30T14:08:56Z,42.805,6.029,13.2979,4.59999,2470.077,2020-6-30T16:09:42Z
2020-06-30T14:12:00Z,42.805,6.029,13.2979,4.60019,2470.11,2020-6-30T16:12:45Z
2020-06-30T14:15:03Z,42.805,6.029,13.2982,4.60011,2470.087,2020-6-30T16:15:49Z
2020-06-30T14:18:06Z,42.805,6.029,13.2982,4.59999,2470.087,2020-6-30T16:18:52Z
2020-06-30T14:21:09Z,42.805,6.029,13.2974,4.59995,2470.063,2020-6-30T16:21:55Z
2020-06-30T14:24:13Z,42.805,6.029,13.2979,4.59990,2470.063,2020-6-30T16:24:58Z
2020-06-30T14:27:16Z,42.805,6.029,13.2980,4.59993,2470.063,2020-6-30T16:28:02Z
2020-06-30T14:30:19Z,42.805,6.029,13.2976,4.59997,2470.063,2020-6-30T16:31:05Z
2020-06-30T14:33:22Z,42.805,6.029,13.2983,4.59996,2470.063,2020-6-30T16:34:08Z
2020-06-30T14:36:26Z,42.805,6.029,13.2977,4.59995,2470.087,2020-6-30T16:37:11Z
2020-06-30T14:39:29Z,42.805,6.029,13.2979,4.60002,2470.087,2020-6-30T16:40:14Z
2020-06-30T14:42:32Z,42.805,6.029,13.2979,4.59996,2470.11,2020-6-30T16:43:18Z
2020-06-30T14:45:35Z,42.805,6.029,13.2979,4.60000,2470.11,2020-6-30T16:46:21Z
2020-06-30T14:48:39Z,42.805,6.029,13.2988,4.60000,2470.063,2020-6-30T16:49:24Z
2020-06-30T14:51:42Z,42.805,6.029,13.2979,4.60000,2470.087,2020-6-30T16:52:27Z
2020-06-30T14:54:45Z,42.805,6.029,13.2977,4.59994,2470.1,2020-6-30T16:55:31Z
2020-06-30T14:57:48Z,42.805,6.029,13.2983,4.60011,2470.087,2020-6-30T16:58:34Z
2020-06-30T15:00:52Z,42.805,6.029,13.2982,4.59992,2470.1,2020-6-30T17:01:37Z
2020-06-30T15:03:55Z,42.805,6.029,13.2989,4.60003,2470.1,2020-6-30T17:04:40Z
2020-06-30T15:06:58Z,42.805,6.029,13.2979,4.59998,2470.087,2020-6-30T17:07:44Z
2020-06-30T15:10:01Z,42.805,6.029,13.2983,4.60006,2470.1,2020-6-30T17:10:47Z
2020-06-30T15:13:05Z,42.805,6.029,13.2981,4.59991,2470.1,2020-6-30T17:13:50Z
2020-06-30T15:16:08Z,42.805,6.029,13.2978,4.59991,2470.1,2020-6-30T17:16:54Z